When you browse on this site, cookies collect data to enhance your experience and personalize the content and advertising you see.
Visit our Privacy Policy to learn more. By continuing to use the site, you agree to this use of cookies and data.
  • In Austria
  • List of Countries
  • For 7 days
  • Water Temperature
  • Weather Map
  • News
  • Weather Widgets
  • user-avatar
    Login

    Hourly Weather Miyadzaki

    Today, 15 September, Sunday

    Time Temperature Precipitation Wind Pressure Humidity
    00:00 +26°C° 0.4 mm 4 mps 748 mmHg 95%
    01:00 +26°C° 0.1 mm 4 mps 748 mmHg 95%
    02:00 +26°C° 0.1 mm 4 mps 747 mmHg 95%
    03:00 +25°C° 0 mm 5 mps 747 mmHg 95%
    04:00 +25°C° 0.1 mm 5 mps 747 mmHg 95%
    05:00 +25°C° 0.1 mm 5 mps 747 mmHg 95%
    06:00 +25°C° 0.1 mm 5 mps 747 mmHg 94%
    07:00 +26°C° 0 mm 5 mps 747 mmHg 90%
    08:00 +27°C° 0 mm 5 mps 747 mmHg 85%
    09:00 +28°C° 0 mm 5 mps 747 mmHg 80%
    10:00 +29°C° 0 mm 5 mps 747 mmHg 74%
    11:00 +30°C° 0 mm 5 mps 747 mmHg 69%
    12:00 +32°C° 0 mm 5 mps 747 mmHg 63%
    13:00 +32°C° 0 mm 5 mps 746 mmHg 62%
    14:00 +32°C° 0 mm 4 mps 746 mmHg 61%
    15:00 +32°C° 0 mm 4 mps 745 mmHg 61%
    16:00 +30°C° 0 mm 3 mps 745 mmHg 67%
    17:00 +29°C° 0 mm 3 mps 745 mmHg 74%
    18:00 +27°C° 0 mm 2 mps 745 mmHg 81%
    19:00 +27°C° 0 mm 2 mps 746 mmHg 83%
    20:00 +26°C° 0 mm 2 mps 746 mmHg 85%
    21:00 +25°C° 0 mm 2 mps 746 mmHg 87%
    22:00 +25°C° 0 mm 2 mps 746 mmHg 88%
    23:00 +25°C° 0 mm 2 mps 745 mmHg 89%

    Tomorrow, 16 September, Monday

    Time Temperature Precipitation Wind Pressure Humidity
    00:00 +24°C° 0 mm 2 mps 745 mmHg 90%
    01:00 +24°C° 0 mm 2 mps 745 mmHg 89%
    02:00 +24°C° 0 mm 2 mps 745 mmHg 89%
    03:00 +24°C° 0 mm 2 mps 744 mmHg 88%
    04:00 +24°C° 0 mm 2 mps 744 mmHg 88%
    05:00 +24°C° 0 mm 2 mps 744 mmHg 88%
    06:00 +24°C° 0 mm 2 mps 744 mmHg 88%
    07:00 +26°C° 0 mm 2 mps 744 mmHg 80%
    08:00 +29°C° 0 mm 2 mps 745 mmHg 72%
    09:00 +31°C° 0 mm 2 mps 745 mmHg 64%
    10:00 +32°C° 0 mm 2 mps 745 mmHg 58%
    11:00 +34°C° 0 mm 2 mps 745 mmHg 53%
    12:00 +36°C° 0 mm 2 mps 744 mmHg 48%
    13:00 +35°C° 0 mm 2 mps 744 mmHg 51%
    14:00 +35°C° 0 mm 2 mps 744 mmHg 53%
    15:00 +34°C° 0 mm 2 mps 743 mmHg 56%
    16:00 +32°C° 0 mm 2 mps 744 mmHg 64%
    17:00 +30°C° 0 mm 2 mps 744 mmHg 72%
    18:00 +28°C° 0 mm 2 mps 744 mmHg 80%
    19:00 +27°C° 0 mm 2 mps 745 mmHg 82%
    20:00 +27°C° 0 mm 3 mps 745 mmHg 84%
    21:00 +26°C° 0 mm 4 mps 745 mmHg 86%
    22:00 +25°C° 0 mm 4 mps 745 mmHg 86%
    23:00 +25°C° 0 mm 4 mps 745 mmHg 85%

    Day after tomorrow, 17 September, Tuesday

    Time Temperature Precipitation Wind Pressure Humidity
    00:00 +25°C° 0 mm 4 mps 745 mmHg 85%
    01:00 +25°C° 0 mm 4 mps 745 mmHg 86%
    02:00 +24°C° 0 mm 3 mps 745 mmHg 86%
    03:00 +24°C° 0 mm 3 mps 746 mmHg 87%
    04:00 +24°C° 0 mm 3 mps 746 mmHg 87%
    05:00 +24°C° 0 mm 3 mps 746 mmHg 86%
    06:00 +25°C° 0 mm 3 mps 746 mmHg 86%
    07:00 +26°C° 0 mm 3 mps 747 mmHg 80%
    08:00 +27°C° 0 mm 3 mps 747 mmHg 75%
    09:00 +29°C° 0 mm 3 mps 748 mmHg 70%
    10:00 +29°C° 0 mm 3 mps 748 mmHg 68%
    11:00 +30°C° 0 mm 3 mps 748 mmHg 66%
    12:00 +30°C° 0 mm 4 mps 747 mmHg 64%
    13:00 +30°C° 0 mm 4 mps 747 mmHg 65%
    14:00 +30°C° 0 mm 3 mps 747 mmHg 65%
    15:00 +31°C° 0 mm 3 mps 747 mmHg 66%
    16:00 +29°C° 0 mm 3 mps 747 mmHg 71%
    17:00 +28°C° 0 mm 2 mps 747 mmHg 76%
    18:00 +27°C° 0 mm 2 mps 748 mmHg 81%
    19:00 +26°C° 0 mm 2 mps 748 mmHg 83%
    20:00 +26°C° 0 mm 1 mps 748 mmHg 84%
    21:00 +25°C° 0 mm 1 mps 749 mmHg 86%
    22:00 +25°C° 0 mm 1 mps 749 mmHg 87%
    23:00 +25°C° 0 mm 1 mps 749 mmHg 88%

    18 September, Wednesday

    Time Temperature Precipitation Wind Pressure Humidity
    00:00 +25°C° 0 mm 2 mps 748 mmHg 89%
    01:00 +24°C° 0 mm 2 mps 748 mmHg 90%
    02:00 +24°C° 0 mm 2 mps 748 mmHg 92%
    03:00 +24°C° 0 mm 2 mps 748 mmHg 94%
    04:00 +24°C° 0 mm 2 mps 748 mmHg 94%
    05:00 +24°C° 0 mm 2 mps 748 mmHg 94%
    06:00 +23°C° 0 mm 2 mps 748 mmHg 94%
    07:00 +25°C° 0 mm 2 mps 749 mmHg 84%
    08:00 +27°C° 0 mm 2 mps 749 mmHg 75%
    09:00 +29°C° 0 mm 2 mps 750 mmHg 65%
    10:00 +30°C° 0 mm 2 mps 749 mmHg 62%
    11:00 +31°C° 0 mm 3 mps 749 mmHg 59%
    12:00 +33°C° 0 mm 3 mps 749 mmHg 55%
    13:00 +33°C° 0 mm 3 mps 749 mmHg 57%
    14:00 +31°C° 0 mm 3 mps 748 mmHg 59%
    15:00 +31°C° 0 mm 3 mps 748 mmHg 61%
    16:00 +29°C° 0 mm 3 mps 748 mmHg 68%
    17:00 +28°C° 0 mm 3 mps 748 mmHg 74%
    18:00 +27°C° 0 mm 3 mps 749 mmHg 80%
    19:00 +26°C° 0 mm 3 mps 749 mmHg 81%
    20:00 +25°C° 0 mm 3 mps 749 mmHg 81%
    21:00 +25°C° 0 mm 2 mps 749 mmHg 82%
    22:00 +24°C° 0 mm 3 mps 749 mmHg 80%
    23:00 +24°C° 0 mm 3 mps 749 mmHg 79%

    19 September, Thursday

    Time Temperature Precipitation Wind Pressure Humidity
    00:00 +22°C° 0 mm 3 mps 749 mmHg 77%
    01:00 +22°C° 0 mm 3 mps 749 mmHg 77%
    02:00 +22°C° 0 mm 3 mps 749 mmHg 78%
    03:00 +22°C° 0 mm 4 mps 749 mmHg 79%
    04:00 +21°C° 0 mm 4 mps 749 mmHg 79%
    05:00 +21°C° 0 mm 4 mps 749 mmHg 79%
    06:00 +21°C° 0 mm 4 mps 749 mmHg 79%
    07:00 +23°C° 0 mm 4 mps 749 mmHg 68%
    08:00 +25°C° 0 mm 5 mps 749 mmHg 58%
    09:00 +27°C° 0 mm 5 mps 750 mmHg 47%
    10:00 +28°C° 0 mm 5 mps 749 mmHg 42%
    11:00 +29°C° 0 mm 5 mps 749 mmHg 38%
    12:00 +30°C° 0 mm 5 mps 749 mmHg 33%
    13:00 +30°C° 0 mm 6 mps 749 mmHg 36%
    14:00 +30°C° 0 mm 6 mps 748 mmHg 40%
    15:00 +29°C° 0 mm 6 mps 748 mmHg 43%
    16:00 +27°C° 0 mm 6 mps 748 mmHg 52%
    17:00 +26°C° 0 mm 5 mps 748 mmHg 61%
    18:00 +23°C° 0 mm 5 mps 748 mmHg 70%
    19:00 +23°C° 0 mm 5 mps 749 mmHg 72%
    20:00 +22°C° 0 mm 5 mps 749 mmHg 74%
    21:00 +22°C° 0 mm 5 mps 749 mmHg 76%
    22:00 +22°C° 0 mm 5 mps 749 mmHg 78%
    23:00 +22°C° 0 mm 4 mps 749 mmHg 79%

    20 September, Friday

    Time Temperature Precipitation Wind Pressure Humidity
    00:00 +21°C° 0 mm 4 mps 749 mmHg 81%
    01:00 +21°C° 0 mm 4 mps 749 mmHg 82%
    02:00 +21°C° 0 mm 4 mps 749 mmHg 83%
    03:00 +20°C° 0 mm 4 mps 749 mmHg 84%
    04:00 +21°C° 0 mm 5 mps 749 mmHg 84%
    05:00 +21°C° 0 mm 5 mps 748 mmHg 85%
    06:00 +21°C° 0 mm 5 mps 748 mmHg 85%
    07:00 +22°C° 0 mm 6 mps 749 mmHg 81%
    08:00 +23°C° 0 mm 6 mps 749 mmHg 77%
    09:00 +24°C° 0 mm 7 mps 749 mmHg 73%
    10:00 +26°C° 0 mm 7 mps 749 mmHg 70%
    11:00 +27°C° 0 mm 7 mps 748 mmHg 66%
    12:00 +27°C° 0 mm 7 mps 748 mmHg 63%
    13:00 +26°C° 0.2 mm 7 mps 748 mmHg 67%
    14:00 +24°C° 0.2 mm 7 mps 747 mmHg 71%
    15:00 +23°C° 0.2 mm 7 mps 747 mmHg 76%
    16:00 +23°C° 1.2 mm 7 mps 747 mmHg 82%
    17:00 +22°C° 1.2 mm 7 mps 747 mmHg 89%
    18:00 +21°C° 1.2 mm 7 mps 747 mmHg 95%
    19:00 +21°C° 1.2 mm 7 mps 747 mmHg 95%
    20:00 +21°C° 1.2 mm 7 mps 747 mmHg 95%
    21:00 +21°C° 1.2 mm 7 mps 747 mmHg 95%
    22:00 +21°C° 1.5 mm 7 mps 747 mmHg 95%
    23:00 +22°C° 1.5 mm 7 mps 747 mmHg 95%
    Show more